Zurück zum Katalog

STARLINK-4505

AktivKommunikationVLEO
NORAD 53556·PAYLOAD·🇺🇸 United States

Gestartet Aug 19, 2022 von Cape Canaveral Space Force Station

Loading…

Nächste Überflüge (nächste 24 Stunden)

TLE

AktuellSource: CelesTrak SupGP

Epoche: Sep 15, 2026, 02:45 UTC

1 53556C 22101AF  26258.11506944  .00011502  00000+0  72119-3 0  2582
2 53556  53.1585 293.1286 0001207  86.1696   5.2243 15.08836266    12

Verfolge STARLINK-4505 in Echtzeit mit AllMySat

Download on the App Store